FW3849 Weather Reports


time (UTC)temp
F
wind
direction
speed
knots
gust
knots
rain 1hr
in
rain 24hr
in
rain mn
in
humidity
%
barometer
mb
20260505023108 78 191 3.5 8.7 0.00 0.00 0.00 41 1006.8
20260505022559 78 191 3.5 7.8 0.00 0.00 0.00 41 1006.7
20260505022059 78 202 3.5 8.7 0.00 0.00 0.00 40 1006.5
20260505021601 78 183 3.5 8.7 0.00 0.00 0.00 40 1006.6
20260505021058 79 169 3.5 9.6 0.00 0.00 0.00 39 1006.4
20260505020557 79 190 3.5 8.7 0.00 0.00 0.00 38 1006.4
20260505015557 79 220 2.6 8.7 0.00 0.00 0.00 38 1006.5
20260505015059 79 133 1.7 7.8 0.00 0.00 0.00 38 1006.4
20260505014600 80 185 3.5 7.8 0.00 0.00 0.00 38 1006.3
20260505014056 80 175 3.5 8.7 0.00 0.00 0.00 37 1006.2
20260505013556 80 150 4.3 8.7 0.00 0.00 0.00 37 1006.1
20260505013055 80 164 4.3 8.7 0.00 0.00 0.00 37 1006.1
20260505012556 80 188 4.3 8.7 0.00 0.00 0.00 36 1006.0
20260505012058 81 191 4.3 8.7 0.00 0.00 0.00 36 1005.9
20260505011556 81 149 4.3 10.4 0.00 0.00 0.00 35 1005.9
20260505011057 81 185 5.2 10.4 0.00 0.00 0.00 34 1006.0
20260505010554 82 218 6.1 10.4 0.00 0.00 0.00 33 1006.0
20260505005556 83 193 6.1 9.6 0.00 0.00 0.00 32 1006.0
20260505005055 83 172 5.2 10.4 0.00 0.00 0.00 31 1006.0
20260505004554 83 207 7.0 14.8 0.00 0.00 0.00 31 1006.0
20260505004054 84 205 7.8 14.8 0.00 0.00 0.00 30 1005.9
20260505003557 84 168 7.8 14.8 0.00 0.00 0.00 29 1006.0
20260505003059 84 229 8.7 13.9 0.00 0.00 0.00 29 1006.1
20260505002552 84 201 6.1 13.9 0.00 0.00 0.00 29 1006.1
20260505002052 85 199 7.0 11.3 0.00 0.00 0.00 28 1006.2
20260505001551 84 192 8.7 12.2 0.00 0.00 0.00 28 1006.2
20260505001050 84 184 8.7 12.2 0.00 0.00 0.00 28 1006.3
20260505000549 85 206 7.8 13.0 0.00 0.00 0.00 29 1006.3
20260504235551 85 204 7.0 13.0 0.00 0.00 0.00 29 1006.5
20260504235049 85 207 8.7 12.2 0.00 0.00 0.00 29 1006.3
20260504234548 84 214 7.8 13.0 0.00 0.00 0.00 29 1006.5
20260504234048 84 207 9.6 13.0 0.00 0.00 0.00 29 1006.6
20260504233548 84 198 7.8 13.0 0.00 0.00 0.00 29 1006.7
20260504233049 85 200 9.6 13.0 0.00 0.00 0.00 28 1006.7
20260504232546 85 213 7.8 13.0 0.00 0.00 0.00 28 1006.7
20260504232049 85 215 7.8 13.0 0.00 0.00 0.00 28 1006.8
20260504231547 85 231 7.8 13.9 0.00 0.00 0.00 28 1006.9
20260504231144 86 220 8.7 10.4 0.00 0.00 0.00 27 1006.9
20260504230546 86 200 8.7 13.0 0.00 0.00 0.00 26 1006.8
20260504225545 86 177 8.7 12.2 0.00 0.00 0.00 26 1006.9
20260504225045 86 208 7.8 13.9 0.00 0.00 0.00 26 1006.9
20260504224542 86 220 8.7 13.9 0.00 0.00 0.00 26 1007.0
20260504224045 86 233 8.7 12.2 0.00 0.00 0.00 25 1007.0
20260504223541 86 210 6.1 10.4 0.00 0.00 0.00 26 1007.2
20260504223040 86 245 5.2 14.8 0.00 0.00 0.00 25 1007.2
20260504222540 86 224 7.0 14.8 0.00 0.00 0.00 26 1007.2
20260504222041 86 218 4.3 10.4 0.00 0.00 0.00 25 1007.2
20260504221541 86 237 7.0 12.2 0.00 0.00 0.00 26 1007.3
20260504221038 86 245 6.1 13.0 0.00 0.00 0.00 26 1007.2
20260504220537 86 189 6.1 10.4 0.00 0.00 0.00 26 1007.2
20260504215537 86 215 7.0 10.4 0.00 0.00 0.00 26 1007.4
20260504215036 86 204 7.8 10.4 0.00 0.00 0.00 26 1007.6
20260504214546 86 196 6.1 11.3 0.00 0.00 0.00 26 1007.7
20260504214035 85 200 7.8 11.3 0.00 0.00 0.00 26 1007.7
20260504213534 85 212 7.0 10.4 0.00 0.00 0.00 26 1007.9
20260504213040 85 202 7.0 10.4 0.00 0.00 0.00 27 1007.9
20260504212534 86 193 7.0 10.4 0.00 0.00 0.00 26 1007.9
20260504212032 85 208 2.6 12.2 0.00 0.00 0.00 27 1008.0
20260504211531 85 271 7.0 12.2 0.00 0.00 0.00 28 1008.2
20260504211029 85 191 5.2 7.8 0.00 0.00 0.00 28 1008.2
20260504210529 84 179 7.0 13.9 0.00 0.00 0.00 28 1008.3
20260504205528 84 202 6.1 13.9 0.00 0.00 0.00 28 1008.7
20260504205027 84 200 8.7 11.3 0.00 0.00 0.00 28 1008.7
20260504204528 84 218 4.3 11.3 0.00 0.00 0.00 29 1008.8
20260504204025 84 247 7.0 11.3 0.00 0.00 0.00 29 1008.7
20260504203524 84 214 7.0 11.3 0.00 0.00 0.00 29 1008.9
20260504203024 83 207 6.1 11.3 0.00 0.00 0.00 31 1008.9
20260504202522 83 201 6.1 11.3 0.00 0.00 0.00 30 1008.9
20260504202021 83 177 6.1 11.3 0.00 0.00 0.00 31 1009.1
20260504201519 83 189 7.8 11.3 0.00 0.00 0.00 31 1009.3
20260504201018 82 206 4.3 8.7 0.00 0.00 0.00 32 1009.3
20260504200518 82 248 5.2 11.3 0.00 0.00 0.00 32 1009.4
20260504195519 82 223 4.3 10.4 0.00 0.00 0.00 32 1009.4
20260504195019 81 198 5.2 10.4 0.00 0.00 0.00 32 1009.6
20260504194521 81 214 5.2 10.4 0.00 0.00 0.00 33 1009.6
20260504194021 81 216 7.0 11.3 0.00 0.00 0.00 33 1009.7
20260504193519 81 218 7.8 11.3 0.00 0.00 0.00 32 1009.6
20260504193017 81 219 4.3 11.3 0.00 0.00 0.00 33 1009.7
20260504192516 81 258 3.5 10.4 0.00 0.00 0.00 32 1009.9
20260504192016 81 256 5.2 10.4 0.00 0.00 0.00 33 1010.0
20260504191527 81 208 7.0 10.4 0.00 0.00 0.00 33 1009.9
20260504191016 81 250 7.0 9.6 0.00 0.00 0.00 32 1009.9
20260504190516 81 245 6.1 9.6 0.00 0.00 0.00 32 1009.9
20260504185514 81 212 5.2 10.4 0.00 0.00 0.00 32 1010.0
20260504185013 81 204 6.1 12.2 0.00 0.00 0.00 32 1009.9
20260504184515 81 243 8.7 12.2 0.00 0.00 0.00 33 1010.0
20260504184012 81 228 6.1 11.3 0.00 0.00 0.00 32 1010.1
20260504183511 81 233 7.8 11.3 0.00 0.00 0.00 33 1010.3
20260504183020 81 173 5.2 11.3 0.00 0.00 0.00 33 1010.6
20260504182507 80 202 6.1 12.2 0.00 0.00 0.00 33 1010.7
20260504182007 80 216 7.8 12.2 0.00 0.00 0.00 33 1010.8
20260504181506 80 197 7.0 10.4 0.00 0.00 0.00 33 1010.8
20260504181005 79 202 7.8 10.4 0.00 0.00 0.00 36 1010.8
20260504180509 78 198 6.1 11.3 0.00 0.00 0.00 37 1011.0
20260504175604 78 206 4.3 11.3 0.00 0.00 0.00 37 1011.0
20260504175003 78 228 5.2 12.2 0.00 0.00 0.00 37 1011.2
20260504174503 78 187 7.0 12.2 0.00 0.00 0.00 37 1011.3
20260504174001 77 196 7.0 11.3 0.00 0.00 0.00 38 1011.1
20260504173503 77 212 6.1 10.4 0.00 0.00 0.00 38 1011.2
20260504173106 77 209 7.0 10.4 0.00 0.00 0.00 38 1011.3
20260504172558 76 238 6.1 11.3 0.00 0.00 0.00 39 1011.6
20260504172057 76 200 6.1 11.3 0.00 0.00 0.00 40 1011.7
20260504171557 75 206 2.6 11.3 0.00 0.00 0.00 40 1011.6
20260504171055 75 142 4.3 9.6 0.00 0.00 0.00 43 1011.7
20260504170553 73 171 3.5 11.3 0.00 0.00 0.00 43 1011.6
20260504151035 68 205 8.7 13.9 0.00 0.00 0.00 50 1012.5
20260504150536 67 243 7.8 13.0 0.00 0.00 0.00 51 1012.4
20260504141028 65 195 2.6 8.7 0.00 0.00 0.00 54 1012.5
20260504140528 64 194 6.1 10.4 0.00 0.00 0.00 55 1012.3
20260504130522 63 143 3.5 7.0 0.00 0.00 0.00 55 1012.3
20260504110508 65 204 4.3 7.8 0.00 0.00 0.00 47 1011.5
20260504100501 65 137 1.7 5.2 0.00 0.00 0.00 45 1011.7
20260504081555 67 191 2.6 7.8 0.00 0.00 0.00 40 1012.5
20260504081057 68 168 4.3 9.6 0.00 0.00 0.00 40 1012.4
20260504080554 68 188 5.2 9.6 0.00 0.00 0.00 40 1012.6
20260504050541 69 194 4.3 10.4 0.00 0.00 0.00 39 1014.6
20260504045542 69 188 6.1 11.3 0.00 0.00 0.00 39 1014.7
20260504045041 69 206 5.2 8.7 0.00 0.00 0.00 39 1014.7
20260504044547 69 206 4.3 10.4 0.00 0.00 0.00 38 1014.9
20260504044041 69 205 7.0 10.4 0.00 0.00 0.00 38 1015.1
20260504043542 69 183 3.5 8.7 0.00 0.00 0.00 39 1015.1
20260504043041 69 180 2.6 7.8 0.00 0.00 0.00 39 1015.0
20260504042541 69 202 4.3 7.8 0.00 0.00 0.00 39 1015.0
20260504042041 70 151 3.5 9.6 0.00 0.00 0.00 39 1015.1
20260504041540 70 180 3.5 13.0 0.00 0.00 0.00 38 1015.1
20260504041040 70 193 7.8 13.0 0.00 0.00 0.00 38 1015.1
20260504040540 70 202 7.8 13.0 0.00 0.00 0.00 38 1015.0
20260504035547 70 204 7.8 13.0 0.00 0.00 0.00 38 1015.0
20260504035044 70 185 7.8 13.0 0.00 0.00 0.00 38 1014.8
20260504034555 70 191 7.0 10.4 0.00 0.00 0.00 38 1014.8
20260504034040 70 205 7.0 14.8 0.00 0.00 0.00 38 1015.0
20260504033541 70 213 7.0 14.8 0.00 0.00 0.00 37 1015.0
20260504033103 70 206 7.0 14.8 0.00 0.00 0.00 37 1015.0
20260504032541 70 213 7.8 13.9 0.00 0.00 0.00 37 1014.8
20260504032040 70 177 7.0 13.9 0.00 0.00 0.00 37 1014.7
20260504031541 70 196 7.8 11.3 0.00 0.00 0.00 37 1014.7
20260504031040 70 194 6.1 11.3 0.00 0.00 0.00 37 1014.8
20260504030539 71 196 6.1 10.4 0.00 0.00 0.00 37 1015.0
20260504030140 71 198 5.2 9.6 0.00 0.00 0.00 37 1015.0
20260504025538 71 205 6.1 9.6 0.00 0.00 0.00 36 1015.0
20260504025038 71 186 3.5 11.3 0.00 0.00 0.00 36 1015.0
20260504024539 71 174 3.5 11.3 0.00 0.00 0.00 36 1015.1
20260504024037 71 181 4.3 11.3 0.00 0.00 0.00 36 1015.2
20260504023538 71 193 6.1 11.3 0.00 0.00 0.00 36 1015.2